Location: Newark
(27.9675°N, 86.8869°E)
Time: 15:43:00
(UTC+00:00)

Altair - Pass Details

Date: 23 October 2019
Orbit: 1502 x 1682 km, 47.2° (Epoch: 12 November)

Event Time Altitude Azimuth Distance (km) Brightness Sun altitude
Rises 05:11:59 0° 263° (W) 4,679 10.0 49.3°
Reaches altitude 10° 05:15:22 10° 271° (W) 3,720 9.5 49.5°
Maximum altitude 05:23:50 36° 336° (NNW) 2,322 8.5 49.9°
Drops below altitude 10° 05:32:38 10° 40° (NE) 3,854 9.5 50.3°
Sets 05:36:14 0° 49° (NE) 4,867 9.9 50.4°
